TimeCST,TemperatureF,Dew PointF,Humidity,Sea Level PressureIn,VisibilityMPH,Wind Direction,Wind SpeedMPH,Gust SpeedMPH,PrecipitationIn,Events,Conditions,WindDirDegrees,DateUTC
12:52 AM,30.0,24.1,79,29.47,10.0,SW,10.4,-,N/A,,Scattered Clouds,230,2014-01-10 06:52:00
1:52 AM,32.0,24.1,73,29.53,10.0,WSW,16.1,-,N/A,,Clear,250,2014-01-10 07:52:00
2:52 AM,32.0,21.9,66,29.53,10.0,West,17.3,-,N/A,,Clear,260,2014-01-10 08:52:00
3:52 AM,30.9,19.9,64,29.53,10.0,West,13.8,25.3,N/A,,Clear,280,2014-01-10 09:52:00
4:52 AM,26.1,18.0,71,29.55,10.0,Variable,3.5,-,N/A,,Clear,0,2014-01-10 10:52:00
5:52 AM,28.0,19.0,69,29.52,10.0,West,13.8,-,N/A,,Clear,270,2014-01-10 11:52:00
6:52 AM,27.0,18.0,69,29.52,10.0,West,13.8,-,N/A,,Overcast,260,2014-01-10 12:52:00
7:52 AM,27.0,17.1,66,29.52,10.0,West,15.0,-,N/A,,Mostly Cloudy,260,2014-01-10 13:52:00
8:52 AM,25.0,16.0,69,29.52,10.0,West,16.1,-,N/A,,Clear,260,2014-01-10 14:52:00
9:52 AM,27.0,17.1,66,29.52,10.0,WSW,17.3,-,N/A,,Mostly Cloudy,240,2014-01-10 15:52:00
10:52 AM,28.0,17.1,63,29.53,10.0,WSW,16.1,-,N/A,,Scattered Clouds,250,2014-01-10 16:52:00
11:52 AM,28.0,17.1,63,29.54,10.0,WSW,15.0,24.2,N/A,,Clear,250,2014-01-10 17:52:00
12:52 PM,30.0,19.0,64,29.53,10.0,SW,8.1,-,N/A,,Overcast,230,2014-01-10 18:52:00
1:52 PM,30.9,19.0,61,29.52,10.0,West,5.8,-,N/A,,Clear,260,2014-01-10 19:52:00
2:52 PM,32.0,19.0,59,29.52,10.0,WSW,6.9,-,N/A,,Mostly Cloudy,240,2014-01-10 20:52:00
3:52 PM,32.0,19.9,61,29.53,10.0,WSW,5.8,-,N/A,,Overcast,240,2014-01-10 21:52:00
4:52 PM,26.1,18.0,71,29.57,10.0,West,6.9,-,N/A,,Clear,280,2014-01-10 22:52:00
5:52 PM,21.0,15.1,78,29.59,10.0,West,4.6,-,N/A,,Scattered Clouds,270,2014-01-10 23:52:00
6:52 PM,21.9,16.0,78,29.62,10.0,Calm,Calm,-,N/A,,Mostly Cloudy,0,2014-01-11 00:52:00
7:52 PM,15.1,10.9,84,29.65,10.0,West,3.5,-,N/A,,Clear,280,2014-01-11 01:52:00
8:52 PM,18.0,14.0,84,29.66,10.0,WSW,5.8,-,N/A,,Mostly Cloudy,250,2014-01-11 02:52:00
9:52 PM,23.0,17.1,78,29.67,10.0,Calm,Calm,-,N/A,,Overcast,0,2014-01-11 03:52:00
10:52 PM,21.9,16.0,78,29.70,10.0,SSW,4.6,-,N/A,,Overcast,200,2014-01-11 04:52:00
11:52 PM,21.0,16.0,81,29.72,10.0,SSW,6.9,-,N/A,,Clear,210,2014-01-11 05:52:00